TimeCDT,TemperatureF,Dew PointF,Humidity,Sea Level PressureIn,VisibilityMPH,Wind Direction,Wind SpeedMPH,Gust SpeedMPH,PrecipitationIn,Events,Conditions,WindDirDegrees,DateUTC
12:53 AM,44.1,33.1,65,29.81,10.0,Calm,Calm,-,N/A,,Clear,0,2012-10-09 05:53:00
1:53 AM,39.9,32.0,73,29.85,10.0,North,3.5,-,N/A,,Clear,350,2012-10-09 06:53:00
2:53 AM,35.6,28.4,75,29.87,10.0,Calm,Calm,-,N/A,,Clear,0,2012-10-09 07:53:00
3:53 AM,36.0,30.9,82,29.85,10.0,North,6.9,-,N/A,,Clear,350,2012-10-09 08:53:00
4:53 AM,45.0,39.0,80,29.84,10.0,North,9.2,-,N/A,,Clear,10,2012-10-09 09:53:00
5:53 AM,46.0,39.0,76,29.86,10.0,North,11.5,-,N/A,,Clear,360,2012-10-09 10:53:00
6:53 AM,46.0,39.0,76,29.90,10.0,North,13.8,23.0,N/A,,Clear,360,2012-10-09 11:53:00
7:53 AM,45.0,37.9,76,29.95,10.0,North,19.6,26.5,N/A,,Clear,350,2012-10-09 12:53:00
8:37 AM,44.6,37.4,76,29.97,10.0,North,16.1,25.3,N/A,,Mostly Cloudy,350,2012-10-09 13:37:00
8:53 AM,45.0,36.0,71,29.99,10.0,North,23.0,29.9,N/A,,Mostly Cloudy,360,2012-10-09 13:53:00
9:02 AM,44.6,35.6,71,29.98,10.0,North,26.5,35.7,N/A,,Scattered Clouds,360,2012-10-09 14:02:00
9:13 AM,44.6,35.6,71,29.99,10.0,North,25.3,35.7,N/A,,Mostly Cloudy,10,2012-10-09 14:13:00
9:49 AM,44.6,32.0,61,30.02,10.0,North,24.2,33.4,N/A,,Scattered Clouds,350,2012-10-09 14:49:00
9:53 AM,44.1,30.9,60,30.03,10.0,North,32.2,40.3,N/A,,Scattered Clouds,360,2012-10-09 14:53:00
10:53 AM,46.0,27.0,47,30.06,10.0,North,19.6,26.5,N/A,,Clear,360,2012-10-09 15:53:00
11:53 AM,48.0,19.0,32,30.05,10.0,North,21.9,29.9,N/A,,Clear,10,2012-10-09 16:53:00
12:53 PM,50.0,21.0,32,30.07,10.0,NNW,21.9,26.5,N/A,,Clear,340,2012-10-09 17:53:00
1:53 PM,51.1,21.0,31,30.06,10.0,North,21.9,27.6,N/A,,Clear,360,2012-10-09 18:53:00
2:53 PM,53.1,21.9,30,30.07,10.0,NNW,18.4,28.8,N/A,,Clear,330,2012-10-09 19:53:00
3:53 PM,54.0,21.9,29,30.06,10.0,North,17.3,25.3,N/A,,Scattered Clouds,360,2012-10-09 20:53:00
4:53 PM,55.0,23.0,29,30.06,10.0,North,20.7,28.8,N/A,,Scattered Clouds,350,2012-10-09 21:53:00
5:53 PM,53.1,23.0,31,30.07,10.0,North,13.8,24.2,N/A,,Partly Cloudy,350,2012-10-09 22:53:00
6:53 PM,50.0,24.1,36,30.09,10.0,NNW,12.7,-,N/A,,Mostly Cloudy,330,2012-10-09 23:53:00
7:53 PM,42.1,23.0,47,30.13,10.0,NNW,6.9,-,N/A,,Scattered Clouds,330,2012-10-10 00:53:00
8:53 PM,41.0,25.0,53,30.17,10.0,North,8.1,-,N/A,,Scattered Clouds,350,2012-10-10 01:53:00
9:53 PM,39.0,25.0,57,30.19,10.0,NNW,8.1,-,N/A,,Scattered Clouds,330,2012-10-10 02:53:00
10:53 PM,35.1,24.1,64,30.21,10.0,NW,8.1,-,N/A,,Clear,320,2012-10-10 03:53:00
11:53 PM,34.0,23.0,64,30.21,10.0,NW,6.9,-,N/A,,Clear,310,2012-10-10 04:53:00